Flag Weather past 2 weeks in Sosnowiec, Poland

Now
48 °F

Passing clouds.


Feels Like: 44 °F
Forecast: 35 / 49 °F
Wind: 10 mph from West

Location: Katowice Airport

Current Time: Oct 30, 2014 at 2:08:47 PM

Latest Report: Oct 30, 2014 at 1:30 PM


Visibility: N/A

Pressure: 30.24 "Hg

Humidity: 66%

Dew point: 37 °F

Location of SosnowiecLocation

Historic Weather in Sosnowiec — Graph

°F

Sosnowiec temperature yesterday

Maximum temperature yesterday: 54 °F (at 2:00 PM)
Minimum temperature yesterday: 28 °F (at 4:30 AM)
Average temperature yesterday: 39 °F

Past Weeks' High & Low Weather Summary

 TemperatureHumidityPressure
High66 °F (Oct 19, 3:00 PM)100% (Oct 15, 10:30 PM)30.45 "Hg (Oct 15, 10:30 PM)
Low28 °F (Oct 27, 11:30 PM)44% (Oct 29, 2:00 PM)29.53 "Hg (Oct 22, 3:00 AM)
Average46 °F88%30.07 "Hg
* Reported Oct 15 2:00 PM — Oct 30 1:00 PM, Sosnowiec, Weather by CustomWeather, © 2014

Note: Actual official high and low records may vary slightly from our data, if they occured in-between our weather recording intervals... More about our weather records

Advertising

Sosnowiec weather history for previous 24 hours

 ConditionsComfort  
Time TempWeatherWind HumidityBarometerVisibility
1:00 PM
Oct 30
48 °FPassing clouds.8 mph66%30.24 "HgN/A
12:30 PM46 °FScattered clouds.10 mph71%30.24 "HgN/A
12:00 PM48 °FScattered clouds.6 mph71%30.24 "HgN/A
11:30 AM46 °FPassing clouds.3 mph71%30.24 "Hg4 mi
11:00 AM45 °FPassing clouds.6 mph76%30.24 "Hg4 mi
10:30 AM43 °FFog.5 mph81%30.24 "Hg3 mi
10:00 AM43 °FFog.6 mph81%30.24 "Hg3 mi
9:30 AM43 °FFog.7 mph81%30.24 "Hg2 mi
9:00 AM41 °FFog.6 mph87%30.24 "Hg2 mi
8:30 AM39 °FFog.2 mph87%30.24 "Hg1 mi
8:00 AM36 °FFog.2 mph93%30.24 "Hg1 mi
7:30 AM30 °FIce fog.No wind100%30.24 "Hg1 mi
7:00 AM28 °FIce fog.2 mph100%30.24 "Hg1 mi
6:30 AM36 °FFog.3 mph93%30.21 "Hg1 mi
6:00 AM36 °FFog.6 mph93%30.18 "Hg1 mi
5:30 AM36 °FChilly.5 mph93%30.21 "Hg1 mi
5:00 AM30 °FIce fog.1 mph100%30.18 "Hg1 mi
4:30 AM34 °FFog.3 mph87%30.18 "Hg1 mi
4:00 AM36 °FFog.5 mph93%30.18 "Hg2 mi
3:30 AM36 °FFog.3 mph93%30.18 "Hg2 mi
3:00 AM36 °FFog.3 mph93%30.18 "Hg2 mi
2:30 AM36 °FFog.5 mph93%30.18 "Hg2 mi
2:00 AM37 °FFog.3 mph87%30.18 "Hg2 mi
1:30 AM37 °FFog.3 mph87%30.18 "Hg2 mi
1:00 AM39 °FFog.5 mph81%30.15 "Hg2 mi
12:30 AM39 °FFog.7 mph81%30.15 "Hg2 mi
12:00 AM37 °FFog.2 mph87%30.15 "Hg2 mi
11:30 PM
Oct 29
39 °FFog.5 mph81%30.15 "Hg2 mi
11:00 PM39 °FFog.7 mph87%30.15 "Hg2 mi
10:30 PM39 °FFog.7 mph81%30.15 "Hg2 mi
10:00 PM37 °FFog.5 mph81%30.15 "Hg2 mi
9:30 PM34 °FFog.3 mph93%30.15 "Hg2 mi
9:00 PM39 °FFog.3 mph87%30.15 "Hg2 mi
8:30 PM39 °FFog.3 mph81%30.12 "Hg2 mi
8:00 PM36 °FFog.5 mph93%30.12 "Hg2 mi
7:30 PM36 °FFog.1 mph93%30.12 "Hg2 mi
7:00 PM39 °FFog.3 mph87%30.12 "Hg2 mi
6:30 PM39 °FFog.5 mph87%30.12 "Hg2 mi
6:00 PM41 °FFog.3 mph81%30.12 "Hg2 mi
5:30 PM43 °FFog.3 mph81%30.12 "Hg2 mi
5:00 PM45 °FClear.5 mph76%30.12 "Hg4 mi
4:30 PM48 °FClear.3 mph66%30.09 "Hg4 mi
4:00 PM50 °FSunny.5 mph62%30.09 "Hg10 mi
3:30 PM54 °FPassing clouds.3 mph47%30.09 "HgN/A
3:00 PM54 °FPassing clouds.5 mph44%30.09 "HgN/A
2:30 PM54 °FPassing clouds.5 mph44%30.09 "HgN/A
2:00 PM54 °FPassing clouds.6 mph44%30.09 "HgN/A
Weather by CustomWeather, © 2014

See weather overviewHow to use our weather pages